GFSSW_con_mlcape_132.txt.gz
CAPE
40 48 25 7 4 0 4 14 34 16 0 7 132 225 195 293 133 31 97 93 2 0 0 0 0 0 0 0 0 0 0 0 0 0 0 0 0 0 0 0 0 0 0 0 0
42 45 40 12 3 5 0 25 25 37 11 4 141 203 262 232 142 74 104 41 0 0 0 0 0 0 0 0 0 0 0 0 0 0 0 0 0 0 0 0 0 0 0 0 0
27 39 25 55 20 1 0 10 22 32 51 25 94 240 297 145 91 23 69 0 0 0 0 0 0 0 0 0 0 0 0 0 0 0 0 0 0 0 0 0 0 0 0 0 0
58 23 34 39 46 9 0 0 10 30 69 68 61 130 149 142 96 4 6 0 0 0 0 0 0 0 0 0 0 0 0 0 0 0 0 0 0 0 0 0 0 0 0 0 0
63 60 23 43 34 40 0 0 0 37 50 105 109 83 73 82 34 0 0 0 0 0 0 0 0 0 0 0 0 0 0 0 0 0 0 0 0 0 0 0 0 0 0 0 0
27 54 24 36 48 59 16 0 0 19 40 130 115 180 105 20 0 0 0 0 0 0 0 0 0 0 0 0 0 0 0 0 0 0 0 0 0 0 0 0 0 0 0 0 0
103 26 47 32 61 40 52 4 5 0 51 165 188 205 85 0 13 16 0 0 0 0 0 0 0 0 0 0 0 0 0 0 0 0 0 0 0 0 0 0 0 0 0 0 0
156 99 76 50 49 23 55 39 0 0 70 256 293 178 32 5 57 55 10 3 0 0 0 0 0 0 0 0 0 0 0 0 0 0 0 0 0 0 0 0 0 0 0 0 0
97 131 132 84 57 62 60 109 27 1 80 303 278 55 48 1 69 161 54 55 17 0 2 0 0 0 0 0 0 0 0 0 0 0 0 0 0 0 0 0 0 0 0 0 0
101 94 185 125 51 64 24 95 87 75 208 274 63 196 7 8 43 56 125 45 16 3 0 0 1 1 0 2 1 4 0 0 0 0 0 0 0 0 0 0 0 0 0 0 0
126 135 65 124 105 113 68 115 46 28 156 34 29 0 11 7 56 50 125 64 29 15 0 4 0 0 0 0 0 1 0 0 0 0 0 0 0 0 0 0 0 0 0 0 0
146 139 105 180 168 102 100 38 0 0 8 34 21 2 3 87 35 53 187 113 57 0 29 11 0 0 0 3 15 4 0 0 0 0 0 0 0 0 0 0 0 0 0 0 0
163 106 23 34 199 81 1 0 0 8 8 14 21 28 52 35 28 81 118 61 32 28 10 3 0 2 8 0 17 4 0 0 0 0 0 0 0 0 0 0 0 0 0 0 0
20 31 16 49 128 12 12 1 0 0 10 1 31 26 72 36 37 69 110 78 44 3 7 22 2 9 5 1 15 2 0 1 1 0 0 0 0 0 0 0 0 0 0 0 0
85 148 32 176 33 22 7 0 0 0 27 0 6 0 25 86 6 32 28 15 10 3 1 3 7 9 13 0 0 2 0 0 0 0 1 0 2 0 0 0 0 0 0 0 0
159 171 32 19 29 4 18 0 0 0 0 2 1 1 41 12 1 39 28 0 0 23 14 8 2 21 4 10 23 6 2 24 21 19 1 0 0 0 0 0 0 0 0 0 0
154 96 16 3 16 20 0 1 0 0 0 0 0 0 1 3 6 19 16 20 0 1 0 4 4 0 3 14 11 22 25 3 9 9 0 0 0 0 0 0 0 0 0 0 0
87 122 23 13 6 0 2 0 0 0 0 0 0 7 0 0 1 0 10 10 0 0 0 1 6 11 4 3 1 9 5 0 0 0 0 0 0 0 0 0 0 0 0 0 0
119 62 34 45 19 0 5 0 0 0 0 4 7 5 2 3 0 3 9 2 3 1 0 2 0 1 6 11 13 15 3 0 0 0 0 0 0 0 0 0 0 0 0 0 0
88 28 4 4 8 8 0 0 0 0 0 3 0 2 0 1 0 3 2 0 0 0 0 0 3 0 14 16 10 8 0 10 0 2 0 0 0 0 0 0 0 0 0 0 0
66 29 11 5 5 7 0 0 0 0 0 0 0 1 0 2 0 0 0 0 0 0 0 0 1 2 25 9 3 0 4 1 5 0 0 0 0 0 0 0 0 0 0 0 0
4 0 0 0 1 0 0 0 0 0 0 0 0 0 0 0 0 0 0 0 0 0 1 0 1 0 3 1 0 16 0 1 0 0 0 0 0 0 0 0 0 0 0 0 0
0 0 3 32 0 0 0 0 0 0 0 0 0 0 0 1 0 1 0 0 0 0 0 2 2 0 2 6 0 1 6 12 7 10 0 1 0 0 0 0 0 0 0 0 0
10 6 7 4 1 0 0 0 2 0 0 0 0 0 0 0 0 0 0 0 0 0 0 4 0 0 0 0 0 0 0 4 20 6 0 0 0 0 0 0 0 0 0 0 0
0 0 0 0 0 0 0 1 1 1 0 0 0 0 0 0 0 0 0 0 0 0 0 9 0 0 0 0 3 0 0 0 6 0 0 0 0 0 0 0 0 0 0 0 0
0 0 1 0 0 0 0 1 0 0 0 0 0 0 0 0 0 0 0 0 0 0 1 2 0 0 0 0 0 0 0 0 0 1 20 1 3 0 0 0 0 0 0 0 0
0 0 0 0 0 0 0 0 0 0 0 0 0 0 0 0 0 0 0 0 0 0 0 4 1 0 1 0 3 4 0 0 0 0 0 0 0 0 0 0 0 0 0 0 0

GFSSW_con_mlcape_138.txt.gz
CAPE
10 11 19 23 24 17 1 0 0 0 0 0 0 2 47 29 21 9 16 56 31 0 0 0 0 0 0 0 0 0 0 0 0 0 0 0 0 0 0 0 0 0 0 0 0
0 10 10 33 23 30 22 0 0 0 0 0 0 1 13 77 47 1 0 16 0 0 0 0 0 0 0 0 0 0 0 0 0 0 0 0 0 0 0 0 0 0 0 0 0
0 4 4 37 34 19 20 10 0 0 0 6 15 0 13 64 59 3 0 20 0 0 0 0 0 0 0 0 0 0 0 0 0 0 0 0 0 0 0 0 0 0 0 0 0
0 0 0 3 43 38 0 4 0 0 0 4 31 25 43 60 11 25 0 50 0 0 0 0 0 0 0 0 0 0 0 0 0 0 0 0 0 0 0 0 0 0 0 0 0
22 0 0 3 11 46 43 16 7 0 0 0 39 60 101 36 2 17 11 89 0 0 0 0 0 0 0 0 0 0 0 0 0 0 0 0 0 0 0 0 0 0 0 0 0
28 18 0 0 9 23 55 45 16 1 0 0 57 77 39 1 14 53 26 4 27 36 17 0 0 0 0 0 0 1 0 0 0 0 0 0 0 0 0 0 0 0 0 0 0
20 25 9 0 0 19 58 76 31 11 0 0 29 99 90 0 26 64 1 28 0 8 26 1 0 0 0 0 0 0 0 0 0 0 0 0 0 0 0 0 0 0 0 0 0
22 14 15 11 2 23 45 83 87 45 0 1 11 86 19 11 39 80 16 12 2 2 0 0 0 0 0 0 0 0 0 0 0 0 0 0 0 0 0 0 0 0 0 0 0
19 10 5 7 24 30 57 102 62 57 17 13 26 77 47 30 32 47 82 26 13 4 0 0 0 0 0 0 1 4 0 0 0 0 0 0 0 0 0 0 0 0 0 0 0
13 14 1 2 12 56 101 145 59 56 23 56 79 98 12 2 38 78 150 110 89 67 52 7 0 0 0 2 1 2 20 6 2 2 7 0 0 0 0 0 0 0 0 0 0
13 18 14 2 0 54 190 179 99 20 27 4 0 0 0 0 103 71 95 108 94 62 3 19 4 0 0 0 0 0 0 0 0 2 0 0 0 0 0 0 0 0 0 0 0
40 19 19 2 21 41 226 149 0 0 11 5 0 0 20 38 43 112 156 157 69 30 60 56 9 0 0 0 0 1 0 0 0 0 0 0 0 0 0 0 0 0 0 0 0
51 53 30 37 28 67 153 54 0 16 6 5 5 32 6 41 4 14 220 23 39 22 47 7 0 20 4 1 3 0 0 0 0 0 0 0 0 0 0 0 0 0 0 0 0
56 62 48 21 46 11 126 116 3 24 6 6 20 1 14 26 7 11 1 37 23 21 11 54 4 18 2 0 0 0 0 0 1 2 0 0 0 0 0 0 0 0 0 0 0
39 66 102 121 2 57 16 109 13 90 14 0 4 21 44 10 0 0 46 6 2 10 3 7 21 22 25 1 0 0 0 0 0 0 0 0 2 0 0 0 0 0 0 0 0
39 88 109 123 87 7 114 136 62 74 26 0 5 1 10 13 5 23 4 17 2 44 44 14 14 46 0 24 5 0 1 21 19 4 1 0 0 0 0 0 0 0 0 0 0
7 91 111 123 5 55 170 118 35 32 1 0 2 5 0 9 4 11 9 8 1 6 10 13 21 21 18 32 17 12 13 5 11 7 0 0 0 0 0 0 0 0 0 0 0
100 58 79 7 0 14 219 66 83 1 0 0 1 8 1 5 3 5 9 4 1 0 0 11 6 19 11 12 3 9 2 3 1 0 0 0 0 0 0 0 0 0 0 0 0
142 25 8 15 0 1 33 0 17 0 0 2 4 2 6 5 0 5 0 5 5 0 0 1 0 2 10 29 23 26 15 0 0 0 0 0 0 0 0 0 0 0 0 0 0
49 9 17 0 0 75 12 0 0 0 0 0 0 8 1 5 0 1 1 0 1 0 0 0 0 8 10 58 14 15 0 0 0 0 0 0 0 0 0 0 0 0 0 0 0
10 1 1 0 36 34 6 0 0 0 0 0 0 2 0 3 0 0 0 1 0 0 2 1 1 0 5 7 2 1 5 1 0 0 0 0 0 0 0 0 0 0 0 0 0
8 0 14 94 0 0 0 0 0 0 0 0 0 0 0 0 4 6 0 0 0 0 10 3 0 0 0 0 1 1 2 1 0 0 0 0 0 0 0 0 0 0 0 0 0
0 7 15 4 0 0 0 0 0 0 0 0 0 0 0 0 1 1 0 0 26 1 4 0 0 1 4 0 6 3 0 4 0 0 0 0 0 0 0 0 0 0 0 0 0
2 0 1 0 0 0 0 0 0 1 0 0 0 0 5 1 0 12 1 0 0 54 24 3 1 8 2 0 0 7 0 2 5 1 0 0 0 0 0 0 0 0 0 0 0
0 0 0 0 0 0 0 0 0 0 0 0 0 0 0 0 0 5 0 0 0 0 4 0 0 5 2 0 0 0 7 27 19 0 6 0 0 0 0 0 0 0 0 0 0
0 0 0 0 0 0 0 0 0 0 0 0 0 0 0 0 0 0 0 0 0 0 0 0 0 0 0 0 0 0 0 0 10 0 20 0 0 0 0 0 0 0 0 0 0
0 0 0 0 0 0 0 0 0 0 0 0 0 0 0 0 0 0 0 0 0 0 0 0 0 0 0 0 0 1 0 0 0 0 0 0 0 0 0 0 0 0 0 0 0

GFSSW_con_mlcape_141.txt.gz
CAPE
11 15 20 26 10 3 0 0 0 0 0 1 0 0 15 54 5 2 2 0 0 0 0 0 0 0 0 0 0 0 0 0 0 0 0 0 0 0 0 0 0 0 0 0 0
7 6 13 17 29 6 15 5 0 0 0 6 9 4 15 34 32 12 0 0 0 0 0 0 0 0 0 0 0 0 0 0 0 0 0 0 0 0 0 0 0 0 0 0 0
0 3 5 21 18 23 0 18 9 0 0 0 5 14 19 38 18 9 0 0 15 0 0 0 0 0 0 0 0 0 0 0 0 0 0 0 0 0 0 0 0 0 0 0 0
20 1 0 1 21 33 27 0 14 5 0 0 3 36 32 27 1 5 0 0 0 0 0 0 0 0 0 0 0 0 0 0 0 0 0 0 0 0 0 0 0 0 0 0 0
15 18 10 3 3 32 40 30 0 0 0 0 1 50 23 3 0 48 25 5 0 0 0 0 0 0 0 0 0 0 0 0 0 0 0 0 0 0 0 0 0 0 0 0 0
14 15 30 15 16 9 35 48 32 4 0 0 0 64 24 0 0 13 37 21 9 0 0 0 0 0 0 0 0 0 0 0 0 0 0 0 0 0 0 0 0 0 0 0 0
42 19 14 17 12 27 44 42 51 41 0 9 0 41 22 0 0 9 0 49 60 44 54 0 0 0 0 0 0 0 0 0 0 0 0 0 0 0 0 0 0 0 0 0 0
42 33 14 21 12 0 24 36 62 55 44 0 7 50 9 2 6 24 58 23 13 15 13 0 0 0 0 0 0 2 0 0 0 0 0 0 0 0 0 0 0 0 0 0 0
27 28 21 13 17 18 0 61 39 65 36 19 0 11 19 3 0 11 53 41 28 0 1 0 0 0 0 0 5 6 4 0 0 0 0 0 0 0 0 0 0 0 0 0 0
37 23 15 18 9 6 24 103 70 71 17 50 14 7 0 0 3 42 68 47 68 27 15 5 0 4 0 1 13 2 2 0 0 0 0 0 0 0 0 0 0 0 0 0 0
50 44 24 11 11 6 16 123 118 23 20 0 0 0 0 0 0 57 66 46 60 58 12 43 35 0 0 0 1 0 0 0 0 0 0 0 0 0 0 0 0 0 0 0 0
44 43 44 31 7 1 51 39 63 0 4 0 0 0 2 3 0 36 96 38 57 9 24 34 12 0 11 2 9 1 0 0 0 0 0 0 0 0 0 0 0 0 0 0 0
58 37 45 46 41 10 2 0 41 0 0 0 0 1 0 29 2 0 112 58 18 7 9 10 0 0 1 2 6 1 0 0 0 0 0 1 0 0 0 0 0 0 0 0 0
58 28 57 60 55 6 2 0 38 10 10 0 2 5 10 21 8 4 92 85 75 22 13 54 0 8 11 6 3 1 0 0 0 0 0 2 0 0 0 0 0 0 0 0 0
75 70 70 87 0 12 0 0 67 31 39 0 0 0 4 0 0 0 58 69 15 2 39 4 3 5 20 0 0 0 0 0 0 0 0 0 0 0 0 0 0 0 0 0 0
74 79 117 83 25 0 0 10 132 98 34 23 3 0 3 0 4 11 16 34 9 2 0 2 19 26 0 5 0 2 2 1 5 2 0 0 0 0 0 0 0 0 0 0 0
86 102 119 65 2 1 12 85 75 46 0 0 4 1 0 2 6 9 2 14 25 16 0 1 1 12 29 33 15 15 2 1 0 1 0 0 0 0 0 0 0 0 0 0 0
130 138 60 32 13 18 93 38 18 0 0 0 2 2 1 0 6 12 10 4 0 1 0 0 0 12 6 1 3 5 3 0 0 0 0 0 0 0 0 0 0 0 0 0 0
183 73 17 50 88 94 34 4 10 0 0 0 3 2 1 4 0 10 3 2 1 0 0 0 0 0 5 63 15 17 20 0 0 0 0 0 0 0 0 0 0 0 0 0 0
71 4 0 29 105 88 24 4 3 4 0 1 0 0 0 6 0 4 9 0 3 2 0 0 0 0 0 22 12 13 0 3 5 1 0 0 0 0 0 0 0 0 0 0 0
72 35 1 17 76 58 6 0 0 0 6 0 0 0 0 1 0 0 0 0 0 0 2 0 1 0 0 8 9 1 7 4 0 0 0 0 0 0 0 0 0 0 0 0 0
2 0 0 31 4 0 0 0 0 1 13 0 0 0 0 0 1 0 0 0 0 0 0 0 0 0 0 0 0 3 3 3 0 0 0 0 0 0 0 0 0 0 0 0 0
0 4 23 1 46 2 0 0 1 1 0 0 0 0 0 0 1 1 2 0 0 0 1 1 2 0 0 0 1 0 0 1 4 0 0 0 0 0 0 0 0 0 0 0 0
2 6 0 1 0 0 3 0 0 1 2 0 0 0 0 0 0 1 8 0 0 0 2 0 0 0 0 0 0 0 0 0 0 0 0 0 0 0 0 0 0 0 0 0 0
0 0 0 0 0 2 2 1 2 0 0 0 0 0 0 0 0 0 0 0 11 24 21 4 0 0 0 0 0 0 0 2 0 0 0 0 1 0 0 0 0 0 0 0 0
0 0 0 0 0 0 0 0 4 0 0 0 0 0 0 0 0 0 0 0 0 4 30 4 0 2 0 0 0 0 0 0 0 0 0 0 0 0 0 0 0 0 0 0 0
7 0 0 0 0 4 1 0 0 0 0 0 0 0 0 0 0 0 0 0 0 0 1 0 0 0 0 0 0 0 0 0 0 0 0 0 0 0 0 0 0 0 0 0 0

GFSSW_con_mlcape_144.txt.gz
CAPE
9 20 29 28 13 0 0 0 0 0 0 0 0 0 0 16 7 2 0 0 0 0 0 0 0 0 0 0 0 0 0 0 0 0 0 0 0 0 0 0 0 0 0 0 0
17 11 19 12 37 11 0 0 0 0 0 1 0 0 0 4 6 10 0 0 0 0 0 0 0 0 0 0 0 0 0 0 0 0 0 0 0 0 0 0 0 0 0 0 0
9 8 6 15 14 23 16 0 0 0 0 0 0 2 7 23 0 0 0 0 0 0 0 0 0 0 0 0 0 0 0 0 0 0 0 0 0 0 0 0 0 0 0 0 0
28 21 1 6 11 15 32 13 0 0 0 0 0 18 23 12 0 0 0 0 0 0 0 0 0 0 0 0 0 0 0 0 0 0 0 0 0 0 0 0 0 0 0 0 0
34 29 31 11 11 13 16 38 10 0 0 0 0 33 20 1 0 28 11 0 0 0 0 0 0 0 0 0 0 0 0 0 0 0 0 0 0 0 0 0 0 0 0 0 0
28 26 24 24 24 12 35 25 22 12 0 0 0 46 22 2 0 21 6 16 0 0 0 0 0 0 0 0 0 0 0 0 0 0 0 0 0 0 0 0 0 0 0 0 0
39 38 18 14 28 35 37 29 37 16 10 0 0 35 34 3 7 0 46 54 46 30 0 0 0 0 0 0 0 0 0 0 0 0 0 0 0 0 0 0 0 0 0 0 0
56 38 35 18 18 24 44 66 43 25 12 0 7 13 5 2 1 15 43 15 12 25 39 0 0 0 0 0 0 0 0 0 0 0 0 0 0 0 0 0 0 0 0 0 0
59 50 15 32 15 12 21 48 58 28 26 20 0 0 0 0 0 7 32 19 23 0 4 0 0 0 0 3 12 11 13 7 0 0 0 0 0 0 0 0 0 0 0 0 0
60 45 51 40 35 17 6 38 66 73 22 35 4 0 0 1 3 37 57 43 46 22 4 0 19 1 0 19 4 13 4 6 2 0 0 0 0 0 0 0 0 0 0 0 0
47 38 29 34 32 27 28 30 41 83 26 0 0 0 0 0 24 0 33 32 46 38 13 45 15 0 8 0 3 6 2 0 0 0 0 0 0 0 0 0 0 0 0 0 0
43 53 41 22 28 30 46 14 0 18 8 0 0 0 0 6 3 22 67 20 24 6 21 10 4 0 18 15 7 8 6 0 0 0 0 0 0 0 0 0 0 0 0 0 0
29 39 47 52 15 18 19 0 5 0 0 0 0 0 0 25 0 0 55 5 3 11 11 6 0 0 2 1 7 4 3 0 2 0 0 0 0 0 0 0 0 0 0 0 0
44 45 58 103 31 6 0 0 32 12 25 0 2 3 0 0 2 7 63 15 37 0 9 10 0 0 4 2 0 3 0 6 2 0 1 1 0 0 0 0 0 0 0 0 0
78 66 90 82 4 3 0 0 52 29 35 0 1 0 0 0 0 0 48 43 11 1 13 0 0 0 12 0 0 0 0 0 0 1 2 4 1 0 0 0 0 0 0 0 0
102 75 100 68 17 0 0 2 32 108 45 5 0 0 5 0 0 7 32 45 9 16 15 10 1 6 0 2 0 0 1 3 7 17 20 0 0 0 0 0 0 0 0 0 0
102 105 102 40 1 0 12 26 43 42 2 0 1 2 0 2 3 4 3 3 3 16 1 1 2 0 1 21 19 24 14 9 7 5 1 0 1 0 0 0 0 0 0 0 0
141 119 89 28 1 36 40 5 47 21 0 0 4 1 1 0 6 9 3 1 5 1 0 0 0 0 0 1 10 11 22 4 0 0 0 0 0 0 0 0 0 0 0 0 0
214 55 40 34 28 38 29 0 0 0 0 1 12 14 13 15 1 15 1 0 0 4 0 0 0 0 0 3 5 6 12 0 0 0 0 0 0 0 0 0 0 0 0 0 0
62 47 3 14 52 39 22 0 0 0 0 5 28 6 0 2 3 2 6 0 0 0 3 0 1 0 0 6 21 3 0 3 0 0 0 0 0 0 0 0 0 0 0 0 0
37 32 3 30 41 10 1 2 1 14 13 0 8 0 0 4 0 2 0 0 0 0 2 0 0 0 2 20 3 7 3 5 6 0 0 0 0 0 0 0 0 0 0 0 0
2 3 0 57 9 0 3 0 0 1 56 49 0 0 0 4 0 3 0 0 0 0 0 0 0 0 0 0 0 4 0 0 0 0 0 0 0 0 0 0 0 0 0 0 0
0 2 19 6 3 14 1 0 2 12 17 54 17 0 0 0 0 2 0 0 0 0 0 0 4 0 1 1 0 1 0 0 0 0 0 0 0 0 0 0 0 0 0 0 0
5 5 8 12 0 1 0 0 2 0 12 3 7 0 0 0 0 1 0 0 0 0 0 0 0 0 0 0 0 0 0 0 0 0 0 0 0 0 0 0 0 0 0 0 0
0 0 0 1 0 1 0 0 7 38 0 10 4 1 0 1 0 0 0 0 0 1 7 0 0 0 0 0 0 0 0 0 0 0 0 0 0 0 2 4 3 2 0 0 0
0 0 0 0 0 0 0 0 1 9 4 0 3 0 0 0 0 0 0 0 2 16 14 1 0 0 0 0 0 0 0 0 0 0 0 0 0 0 0 2 0 0 0 0 0
2 0 0 0 0 2 0 0 0 0 0 0 0 1 2 0 0 0 0 0 26 37 38 10 0 0 3 0 0 0 0 0 0 0 0 0 0 0 0 0 0 0 0 0 0

GFSSW_con_mlcape_147.txt.gz
CAPE
41 17 19 33 7 0 0 0 0 0 0 0 0 0 0 18 7 2 0 0 0 0 0 0 0 0 0 0 0 0 0 0 0 0 0 0 0 0 0 0 0 0 0 0 0
51 27 29 26 23 6 0 0 0 0 0 0 0 0 0 3 10 3 0 0 0 0 0 0 0 0 0 0 0 0 0 0 0 0 0 0 0 0 0 0 0 0 0 0 0
40 47 16 25 23 12 3 0 0 0 0 0 9 13 8 10 0 0 0 0 0 0 0 0 0 0 0 0 0 0 0 0 0 0 0 0 0 0 0 0 0 0 0 0 0
44 32 11 8 10 22 9 12 0 0 0 0 3 25 30 13 0 0 0 0 0 0 0 0 0 0 0 0 0 0 0 0 0 0 0 0 0 0 0 0 0 0 0 0 0
32 29 30 1 5 6 20 2 3 0 0 0 0 36 27 7 1 10 0 0 0 0 0 0 0 0 0 0 0 0 0 0 0 0 0 0 0 0 0 0 0 0 0 0 0
23 26 27 25 1 8 20 14 6 0 2 0 0 43 27 3 0 0 0 2 0 0 0 0 0 0 0 0 0 0 0 0 0 0 0 0 0 0 0 0 0 0 0 0 0
5 24 21 17 19 21 32 32 11 8 21 0 0 12 20 0 0 0 26 26 28 0 3 0 0 0 0 0 0 0 0 0 0 0 0 0 0 0 0 0 0 0 0 0 0
53 25 20 23 6 12 43 33 15 13 8 21 1 6 0 1 4 13 38 0 28 27 2 0 0 0 0 0 0 0 0 0 0 0 0 0 0 0 0 0 0 0 0 0 0
44 57 34 12 7 2 31 57 33 47 27 14 0 0 0 0 0 3 49 22 16 13 0 0 0 1 0 1 2 1 0 0 0 0 0 0 0 0 0 0 0 0 0 0 0
39 48 46 18 1 17 17 43 69 80 31 27 1 3 0 0 12 6 39 29 8 0 14 0 17 4 0 14 6 11 2 0 0 0 0 0 0 0 0 0 0 0 0 0 0
48 57 45 12 12 25 29 20 41 35 21 0 0 0 0 0 14 9 47 34 23 16 2 25 2 2 3 15 38 19 4 3 0 0 0 0 0 0 0 0 0 0 0 0 0
35 62 77 75 34 16 43 12 0 12 26 3 2 0 0 19 11 26 57 17 17 6 8 14 1 0 10 5 4 1 0 4 0 0 1 0 0 0 0 0 0 0 0 0 0
50 47 94 59 48 65 7 0 1 0 28 12 2 0 0 27 3 0 1 2 11 11 3 3 0 0 0 0 1 0 0 2 2 3 0 0 0 0 0 0 0 0 0 0 0
50 60 77 55 50 28 16 8 13 1 24 15 2 2 0 11 0 11 54 27 27 11 9 5 0 1 1 0 0 0 0 0 0 11 6 0 0 0 0 0 0 0 0 0 0
78 87 66 49 0 16 0 10 30 10 25 9 1 0 0 0 0 0 21 35 0 0 1 0 0 7 6 0 0 0 0 0 2 12 16 0 8 0 0 0 0 0 0 0 0
57 38 73 45 0 0 0 15 67 38 41 18 2 2 1 0 1 20 37 31 6 7 5 0 0 0 0 0 0 0 15 9 12 13 1 0 8 0 0 0 0 0 0 0 0
105 80 32 18 1 0 10 30 32 25 0 11 5 4 0 1 10 15 0 3 1 4 14 13 7 10 0 1 14 15 26 11 11 1 0 0 0 0 0 0 0 0 0 0 0
70 115 95 0 0 18 19 6 6 1 7 0 0 0 2 0 4 7 5 1 1 0 0 1 2 3 7 10 20 8 8 3 0 0 0 0 0 0 0 0 0 0 0 0 0
151 72 63 7 9 18 7 2 0 0 0 7 2 2 2 8 0 11 5 0 0 0 0 0 1 0 0 0 0 0 11 1 1 0 0 0 0 0 0 0 0 0 0 0 0
4 38 25 13 0 19 5 0 0 0 0 29 0 7 5 13 5 14 4 0 0 0 0 0 0 0 0 0 0 23 0 18 10 12 2 0 0 0 0 0 0 0 0 0 0
13 3 0 38 23 6 1 0 0 0 1 34 49 1 2 0 1 2 0 0 0 0 1 0 0 0 4 2 2 17 0 0 1 1 1 0 0 0 0 0 0 0 0 0 0
9 0 7 61 20 0 1 0 0 0 0 14 41 7 0 0 3 1 0 0 0 0 0 0 0 0 0 0 0 2 0 0 2 0 0 0 0 0 0 0 0 0 0 0 0
8 16 22 25 4 10 0 1 1 1 7 1 14 26 0 1 9 7 4 0 0 0 0 0 6 0 1 0 0 2 0 4 0 0 2 0 0 0 0 0 0 0 0 0 0
3 7 60 26 2 1 0 1 5 6 15 34 8 0 1 4 0 0 0 0 0 1 0 1 0 0 0 0 0 0 0 1 0 0 0 0 0 0 0 1 0 0 0 0 0
0 0 0 1 1 0 1 0 4 28 13 0 2 7 3 5 0 0 0 0 1 5 4 0 0 0 0 0 0 0 0 0 0 0 0 0 0 0 0 0 1 0 0 0 0
0 0 0 0 0 0 0 0 2 3 38 0 1 6 2 0 0 0 0 0 0 1 27 2 4 0 0 0 0 0 0 0 0 1 0 0 0 0 0 0 0 0 0 0 0
0 0 0 0 0 0 0 0 1 1 28 12 0 0 7 0 0 0 0 0 0 0 1 3 0 0 1 0 0 0 0 0 0 1 0 0 0 0 0 0 0 0 0 0 0